UAE9843 VHHH-OMDW

Flight info

Callsign UAE9843
Flight time N/A
Altitude 34000
Route PECAN V10 SIKOU/K0919S1040 A202 ASSAD/K0920F340 A206 NALAO/N0497F340 A206 LPB B465 CEA A791 JJS/N0493F360 A791 BPL L639 MILUP/N0487F380 L639 RASKI L301 RAGMA N571 VUSET A454 PASOV M564 UMAMI
Aircraft B77L/H-SDE1E2E3FGHIJ2J3J4J5M1RWXY/LB1D1

Departure

Time N/A
Airport Hong Kong International Airport (VHHH)

Arrival

Time 2026-05-05 07:55
Airport Al Maktoum International Airport (OMDW)
Time Latitude Longitude Altitude Speed Heading
2026-05-05 06:38 23.15996 62.86678 37855 ft 461 kts 276°
2026-05-05 06:39 23.16331 62.83283 37851 ft 460 kts 276°
2026-05-05 06:39 23.17010 62.76368 37848 ft 459 kts 276°
2026-05-05 06:40 23.17684 62.69480 37848 ft 458 kts 276°
2026-05-05 06:40 23.18361 62.62524 37842 ft 458 kts 276°
2026-05-05 06:41 23.19028 62.55649 37851 ft 458 kts 276°
2026-05-05 06:41 23.19692 62.48764 37841 ft 458 kts 276°
2026-05-05 06:42 23.20353 62.41880 37846 ft 458 kts 276°
2026-05-05 06:42 23.21012 62.34989 37850 ft 459 kts 276°
2026-05-05 06:43 23.21668 62.28095 37846 ft 459 kts 276°
2026-05-05 06:43 23.22322 62.21186 37847 ft 459 kts 276°
2026-05-05 06:44 23.22973 62.14282 37852 ft 460 kts 276°
2026-05-05 06:44 23.23622 62.07361 37842 ft 460 kts 276°
2026-05-05 06:45 23.24268 62.00437 37846 ft 460 kts 276°
2026-05-05 06:45 23.24907 61.93557 37851 ft 460 kts 276°
2026-05-05 06:46 23.25548 61.86627 37842 ft 460 kts 275°
2026-05-05 06:46 23.26184 61.79719 37846 ft 459 kts 275°
2026-05-05 06:47 23.26816 61.72821 37844 ft 458 kts 275°
2026-05-05 06:47 23.27443 61.65933 37844 ft 457 kts 275°
2026-05-05 06:48 23.28066 61.59063 37841 ft 457 kts 275°
2026-05-05 06:48 23.28687 61.52187 37839 ft 456 kts 275°
2026-05-05 06:49 23.29303 61.45324 37839 ft 456 kts 275°
2026-05-05 06:49 23.29918 61.38439 37841 ft 457 kts 275°
2026-05-05 06:50 23.30530 61.31561 37837 ft 457 kts 275°
2026-05-05 06:50 23.31135 61.24726 37840 ft 457 kts 275°
2026-05-05 06:51 23.31741 61.17840 37836 ft 458 kts 275°
2026-05-05 06:51 23.32544 61.10975 37840 ft 458 kts 278°
2026-05-05 06:52 23.33464 61.04105 37831 ft 459 kts 278°
2026-05-05 06:52 23.34353 60.97231 37845 ft 459 kts 277°
2026-05-05 06:53 23.35213 60.90356 37824 ft 458 kts 277°
2026-05-05 06:53 23.36065 60.83496 37832 ft 457 kts 277°
2026-05-05 06:54 23.36913 60.76652 37825 ft 456 kts 277°
2026-05-05 06:54 23.37759 60.69812 37821 ft 455 kts 277°
2026-05-05 06:55 23.39031 60.63057 37826 ft 456 kts 285°
2026-05-05 06:55 23.41291 60.56609 37833 ft 457 kts 290°
2026-05-05 06:56 23.43674 60.50195 37831 ft 457 kts 290°
2026-05-05 06:56 23.46030 60.43761 37818 ft 458 kts 290°
2026-05-05 06:57 23.48366 60.37353 37826 ft 458 kts 290°
2026-05-05 06:57 23.50728 60.30869 37833 ft 458 kts 290°
2026-05-05 06:58 23.53072 60.24422 37822 ft 457 kts 290°
2026-05-05 06:58 23.55397 60.18021 37824 ft 457 kts 290°
2026-05-05 06:59 23.57729 60.11592 37812 ft 456 kts 290°
2026-05-05 06:59 23.60057 60.05164 37817 ft 456 kts 290°
2026-05-05 07:00 23.62382 59.98733 37816 ft 455 kts 290°
2026-05-05 07:00 23.64700 59.92312 37819 ft 455 kts 289°
2026-05-05 07:01 23.67019 59.85880 37823 ft 455 kts 289°
2026-05-05 07:01 23.69334 59.79449 37824 ft 455 kts 289°
2026-05-05 07:02 23.71643 59.73025 37815 ft 455 kts 289°
2026-05-05 07:02 23.73947 59.66606 37820 ft 454 kts 289°
2026-05-05 07:03 23.76248 59.60184 37820 ft 454 kts 289°
2026-05-05 07:03 23.78544 59.53768 37808 ft 454 kts 289°
2026-05-05 07:04 23.80836 59.47352 37816 ft 454 kts 289°
2026-05-05 07:04 23.83125 59.40933 37816 ft 454 kts 289°
2026-05-05 07:05 23.85416 59.34503 37824 ft 454 kts 289°
2026-05-05 07:05 23.87702 59.28074 37819 ft 453 kts 289°
2026-05-05 07:06 23.89978 59.21663 37818 ft 453 kts 289°
2026-05-05 07:06 23.92254 59.15245 37821 ft 452 kts 289°
2026-05-05 07:07 23.94438 59.08811 37817 ft 452 kts 288°
2026-05-05 07:07 23.96496 59.02318 37805 ft 451 kts 287°
2026-05-05 07:08 23.98554 58.95830 37803 ft 452 kts 287°
2026-05-05 07:08 24.00603 58.89422 37823 ft 452 kts 287°
2026-05-05 07:09 24.02689 58.82910 37825 ft 452 kts 287°
2026-05-05 07:09 24.04759 58.76437 37808 ft 452 kts 287°
2026-05-05 07:10 24.06827 58.69955 37819 ft 451 kts 287°
2026-05-05 07:10 24.08894 58.63466 37814 ft 451 kts 287°
2026-05-05 07:11 24.10956 58.56983 37818 ft 451 kts 287°
2026-05-05 07:11 24.13009 58.50504 37813 ft 450 kts 287°
2026-05-05 07:12 24.15061 58.44013 37815 ft 450 kts 287°
2026-05-05 07:12 24.17108 58.37528 37820 ft 450 kts 287°
2026-05-05 07:13 24.19147 58.31055 37826 ft 450 kts 287°
2026-05-05 07:13 24.21183 58.24584 37808 ft 449 kts 287°
2026-05-05 07:14 24.23213 58.18121 37805 ft 449 kts 287°
2026-05-05 07:14 24.25241 58.11654 37822 ft 449 kts 287°
2026-05-05 07:15 24.27267 58.05179 37820 ft 449 kts 287°
2026-05-05 07:15 24.29287 57.98716 37815 ft 449 kts 287°
2026-05-05 07:16 24.31309 57.92236 37797 ft 449 kts 287°
2026-05-05 07:16 24.33328 57.85752 37810 ft 449 kts 287°
2026-05-05 07:17 24.35000 57.80378 37808 ft 449 kts 287°
2026-05-05 07:17 24.37341 57.72837 37810 ft 448 kts 287°
2026-05-05 07:18 24.39336 57.66397 37816 ft 448 kts 287°
2026-05-05 07:18 24.41003 57.61008 37813 ft 448 kts 287°
2026-05-05 07:19 24.43002 57.54537 37811 ft 447 kts 287°
2026-05-05 07:19 24.45008 57.48038 37814 ft 447 kts 287°
2026-05-05 07:20 24.47000 57.41587 37814 ft 447 kts 287°
2026-05-05 07:20 24.48985 57.35145 37812 ft 447 kts 287°
2026-05-05 07:20 24.49997 57.31855 37423 ft 454 kts 287°
2026-05-05 07:21 24.51021 57.28520 36703 ft 463 kts 287°
2026-05-05 07:21 24.52036 57.25212 35865 ft 460 kts 287°
2026-05-05 07:21 24.52997 57.22087 34903 ft 444 kts 287°
2026-05-05 07:21 24.53938 57.19024 34143 ft 442 kts 287°
2026-05-05 07:22 24.54925 57.15803 33133 ft 448 kts 288°
2026-05-05 07:22 24.55918 57.12558 32129 ft 452 kts 288°
2026-05-05 07:22 24.56905 57.09328 31117 ft 456 kts 287°
2026-05-05 07:22 24.57843 57.06259 30351 ft 457 kts 287°
2026-05-05 07:23 24.58778 57.03198 29622 ft 455 kts 287°
2026-05-05 07:23 24.59636 57.00385 28911 ft 453 kts 288°
2026-05-05 07:23 24.60575 56.97304 28205 ft 450 kts 288°
2026-05-05 07:23 24.61533 56.94159 27520 ft 446 kts 288°
2026-05-05 07:24 24.62515 56.90936 26845 ft 443 kts 288°
2026-05-05 07:24 24.63487 56.87741 26171 ft 439 kts 288°
2026-05-05 07:24 24.64395 56.84551 25508 ft 436 kts 284°
2026-05-05 07:24 24.65006 56.81304 24836 ft 434 kts 278°
2026-05-05 07:25 24.65388 56.78037 24182 ft 432 kts 277°
2026-05-05 07:25 24.65806 56.74773 23547 ft 431 kts 278°
2026-05-05 07:25 24.66249 56.71529 22813 ft 430 kts 278°
2026-05-05 07:25 24.66700 56.68281 22127 ft 427 kts 278°
2026-05-05 07:26 24.67143 56.65072 21489 ft 423 kts 278°
2026-05-05 07:26 24.67580 56.61888 20877 ft 420 kts 278°
2026-05-05 07:26 24.68012 56.58719 20274 ft 416 kts 278°
2026-05-05 07:26 24.68437 56.55586 19681 ft 413 kts 278°
2026-05-05 07:27 24.68858 56.52477 19089 ft 410 kts 278°
2026-05-05 07:27 24.69281 56.49378 18494 ft 408 kts 278°
2026-05-05 07:27 24.69702 56.46314 17874 ft 405 kts 278°
2026-05-05 07:27 24.70120 56.43260 17221 ft 402 kts 278°
2026-05-05 07:28 24.70534 56.40238 16625 ft 398 kts 278°
2026-05-05 07:28 24.70942 56.37250 16044 ft 394 kts 278°
2026-05-05 07:28 24.71348 56.34282 15466 ft 390 kts 279°
2026-05-05 07:28 24.71920 56.31390 14904 ft 387 kts 287°
2026-05-05 07:29 24.72709 56.28609 14146 ft 381 kts 284°
2026-05-05 07:29 24.73080 56.25721 13711 ft 384 kts 271°
2026-05-05 07:29 24.72871 56.22783 13385 ft 384 kts 261°
2026-05-05 07:29 24.72416 56.19931 12932 ft 381 kts 262°
2026-05-05 07:30 24.72099 56.17014 12528 ft 384 kts 265°
2026-05-05 07:30 24.71607 56.11183 11940 ft 382 kts 265°
2026-05-05 07:30 24.71361 56.08317 11679 ft 380 kts 265°
2026-05-05 07:31 24.71099 56.05381 11368 ft 380 kts 264°
2026-05-05 07:31 24.70836 56.02530 11062 ft 380 kts 264°
2026-05-05 07:31 24.70564 55.99641 10768 ft 380 kts 264°
2026-05-05 07:31 24.70290 55.96747 10491 ft 380 kts 264°
2026-05-05 07:32 24.70014 55.93853 10221 ft 380 kts 264°
2026-05-05 07:32 24.69738 55.90969 9944 ft 380 kts 264°
2026-05-05 07:32 24.69462 55.88089 9796 ft 375 kts 264°
2026-05-05 07:32 24.69189 55.85265 9773 ft 368 kts 264°
2026-05-05 07:33 24.68920 55.82495 9724 ft 362 kts 264°
2026-05-05 07:33 24.68656 55.79762 9682 ft 357 kts 264°
2026-05-05 07:33 24.68395 55.77071 9638 ft 352 kts 264°
2026-05-05 07:33 24.68144 55.74482 9506 ft 329 kts 264°
2026-05-05 07:34 24.67909 55.72058 9346 ft 309 kts 264°
2026-05-05 07:34 24.67686 55.69769 9079 ft 296 kts 264°
2026-05-05 07:34 24.67470 55.67543 8704 ft 289 kts 264°
2026-05-05 07:34 24.67259 55.65364 8295 ft 286 kts 264°
2026-05-05 07:35 24.67046 55.63189 7811 ft 286 kts 264°
2026-05-05 07:35 24.66834 55.61020 7359 ft 284 kts 264°
2026-05-05 07:35 24.66634 55.58862 6948 ft 282 kts 265°
2026-05-05 07:35 24.66518 55.56714 6539 ft 281 kts 267°
2026-05-05 07:36 24.66425 55.54576 6121 ft 279 kts 267°
2026-05-05 07:36 24.66329 55.52449 5699 ft 278 kts 266°
2026-05-05 07:36 24.66229 55.50343 5327 ft 275 kts 268°
2026-05-05 07:36 24.66127 55.48257 4937 ft 272 kts 268°
2026-05-05 07:37 24.66022 55.46150 4690 ft 279 kts 268°
2026-05-05 07:37 24.65914 55.44021 4691 ft 279 kts 268°
2026-05-05 07:37 24.65863 55.41907 4634 ft 273 kts 277°
2026-05-05 07:37 24.66492 55.40011 4450 ft 268 kts 307°
2026-05-05 07:38 24.67585 55.38369 4287 ft 269 kts 306°
2026-05-05 07:38 24.68591 55.36617 4233 ft 271 kts 302°
2026-05-05 07:38 24.69562 55.34836 4237 ft 271 kts 302°
2026-05-05 07:38 24.70535 55.33052 4234 ft 272 kts 302°
2026-05-05 07:39 24.71511 55.31275 4236 ft 272 kts 303°
2026-05-05 07:39 24.72492 55.29494 4217 ft 273 kts 303°
2026-05-05 07:39 24.73481 55.27705 4202 ft 274 kts 303°
2026-05-05 07:39 24.74473 55.25913 4199 ft 274 kts 303°
2026-05-05 07:40 24.75455 55.24138 4197 ft 268 kts 303°
2026-05-05 07:40 24.76413 55.22410 4252 ft 264 kts 303°
2026-05-05 07:40 24.77375 55.20676 4239 ft 267 kts 303°
2026-05-05 07:40 24.78332 55.18949 4225 ft 257 kts 303°
2026-05-05 07:41 24.79235 55.17318 4208 ft 242 kts 303°
2026-05-05 07:41 24.80091 55.15772 4191 ft 235 kts 303°
2026-05-05 07:41 24.80938 55.14244 4197 ft 234 kts 303°
2026-05-05 07:41 24.81787 55.12711 4194 ft 234 kts 303°
2026-05-05 07:42 24.82631 55.11181 4193 ft 234 kts 303°
2026-05-05 07:42 24.83472 55.09653 4195 ft 234 kts 303°
2026-05-05 07:42 24.84317 55.08118 4192 ft 234 kts 303°
2026-05-05 07:42 24.85151 55.06605 4195 ft 234 kts 303°
2026-05-05 07:43 24.86007 55.05049 4195 ft 234 kts 303°
2026-05-05 07:43 24.86852 55.03513 4200 ft 235 kts 303°
2026-05-05 07:43 24.87696 55.01979 4194 ft 235 kts 303°
2026-05-05 07:43 24.88542 55.00445 4198 ft 234 kts 303°
2026-05-05 07:44 24.89382 54.98924 4221 ft 229 kts 303°
2026-05-05 07:44 24.90196 54.97449 4219 ft 230 kts 303°
2026-05-05 07:44 24.91044 54.95914 4228 ft 234 kts 303°
2026-05-05 07:44 24.91884 54.94391 4227 ft 235 kts 303°
2026-05-05 07:45 24.92733 54.92853 4229 ft 235 kts 303°
2026-05-05 07:45 24.93578 54.91318 4224 ft 234 kts 303°
2026-05-05 07:45 24.94424 54.89782 4225 ft 234 kts 303°
2026-05-05 07:45 24.95266 54.88254 4223 ft 234 kts 303°
2026-05-05 07:46 24.96110 54.86722 4223 ft 234 kts 303°
2026-05-05 07:46 24.96951 54.85193 4219 ft 234 kts 303°
2026-05-05 07:46 24.97795 54.83660 4218 ft 234 kts 303°
2026-05-05 07:46 24.98683 54.82178 4203 ft 228 kts 314°
2026-05-05 07:47 25.00018 54.81322 4193 ft 226 kts 351°
2026-05-05 07:47 25.01563 54.81474 4219 ft 227 kts 19°
2026-05-05 07:47 25.02989 54.82237 4123 ft 228 kts 31°
2026-05-05 07:47 25.04347 54.83138 4012 ft 227 kts 34°
2026-05-05 07:48 25.05442 54.84329 3878 ft 218 kts 62°
2026-05-05 07:48 25.05712 54.85911 3783 ft 208 kts 98°
2026-05-05 07:48 25.05217 54.87354 3721 ft 196 kts 113°
2026-05-05 07:48 25.04634 54.88697 3606 ft 192 kts 115°
2026-05-05 07:49 25.04005 54.89981 3522 ft 191 kts 117°
2026-05-05 07:49 25.03337 54.91250 3420 ft 191 kts 119°
2026-05-05 07:49 25.02658 54.92504 3329 ft 191 kts 119°
2026-05-05 07:49 25.01971 54.93760 3239 ft 190 kts 120°
2026-05-05 07:50 25.01308 54.94964 3129 ft 177 kts 119°
2026-05-05 07:50 25.00693 54.96082 3030 ft 163 kts 119°
2026-05-05 07:50 25.00109 54.97145 2955 ft 162 kts 119°
2026-05-05 07:50 24.99542 54.98178 2832 ft 151 kts 120°
2026-05-05 07:51 24.99018 54.99128 2698 ft 139 kts 120°
2026-05-05 07:51 24.98517 55.00039 2612 ft 139 kts 119°
2026-05-05 07:51 24.98015 55.00951 2494 ft 139 kts 119°
2026-05-05 07:51 24.97521 55.01850 2394 ft 137 kts 120°
2026-05-05 07:52 24.97026 55.02750 2291 ft 137 kts 120°
2026-05-05 07:52 24.96531 55.03650 2165 ft 137 kts 119°
2026-05-05 07:52 24.96035 55.04550 2016 ft 138 kts 119°
2026-05-05 07:52 24.95536 55.05457 1841 ft 138 kts 120°
2026-05-05 07:53 24.95037 55.06361 1665 ft 139 kts 120°
2026-05-05 07:53 24.94534 55.07278 1493 ft 140 kts 120°
2026-05-05 07:53 24.94025 55.08201 1337 ft 141 kts 121°
2026-05-05 07:53 24.93527 55.09108 1138 ft 141 kts 121°
2026-05-05 07:54 24.93017 55.10031 980 ft 142 kts 121°
2026-05-05 07:54 24.92471 55.10963 802 ft 145 kts 122°
2026-05-05 07:54 24.91985 55.11935 643 ft 148 kts 117°
2026-05-05 07:54 24.91458 55.12909 430 ft 149 kts 124°
2026-05-05 07:55 24.90899 55.13871 213 ft 147 kts 121°
2026-05-05 07:55 24.90377 55.14810 127 ft 138 kts 122°
2026-05-05 07:55 24.89934 55.15598 125 ft 97 kts 121°
2026-05-05 07:55 24.89678 55.16061 138 ft 45 kts 121°
2026-05-05 07:56 24.89558 55.16269 142 ft 31 kts 136°
2026-05-05 07:56 24.89477 55.16334 142 ft 0 kts 147°
2026-05-05 07:57 24.89476 55.16335 142 ft 0 kts 147°
2026-05-05 07:58 24.89470 55.16339 142 ft 5 kts 147°
2026-05-05 07:58 24.89417 55.16376 143 ft 10 kts 151°
2026-05-05 07:58 24.89360 55.16409 144 ft 9 kts 153°
2026-05-05 07:58 24.89306 55.16440 145 ft 9 kts 152°
2026-05-05 07:59 24.89252 55.16472 146 ft 9 kts 154°
2026-05-05 07:59 24.89193 55.16463 146 ft 9 kts 210°
2026-05-05 07:59 24.89173 55.16404 146 ft 9 kts 283°
2026-05-05 07:59 24.89200 55.16342 145 ft 9 kts 299°
2026-05-05 08:00 24.89227 55.16291 145 ft 9 kts 300°
2026-05-05 08:00 24.89241 55.16264 144 ft 9 kts 300°
2026-05-05 08:00 24.89272 55.16207 144 ft 9 kts 301°
2026-05-05 08:01 24.89306 55.16148 143 ft 9 kts 303°
2026-05-05 08:01 24.89339 55.16091 142 ft 9 kts 300°
2026-05-05 08:01 24.89360 55.16052 142 ft 9 kts 300°
2026-05-05 08:01 24.89404 55.15975 141 ft 9 kts 303°
2026-05-05 08:02 24.89437 55.15916 140 ft 9 kts 298°
2026-05-05 08:02 24.89407 55.15861 139 ft 9 kts 216°
2026-05-05 08:02 24.89353 55.15824 139 ft 9 kts 211°
2026-05-05 08:02 24.89299 55.15788 139 ft 9 kts 211°
2026-05-05 08:03 24.89244 55.15751 139 ft 9 kts 211°
2026-05-05 08:03 24.89190 55.15716 139 ft 9 kts 211°
2026-05-05 08:03 24.89136 55.15680 139 ft 9 kts 212°
2026-05-05 08:03 24.89082 55.15643 139 ft 9 kts 212°
2026-05-05 08:04 24.89028 55.15607 139 ft 9 kts 210°
2026-05-05 08:04 24.88972 55.15572 139 ft 9 kts 210°
2026-05-05 08:04 24.88936 55.15548 139 ft 9 kts 210°
2026-05-05 08:04 24.88864 55.15500 139 ft 9 kts 213°
2026-05-05 08:05 24.88808 55.15477 140 ft 9 kts 158°
2026-05-05 08:05 24.88819 55.15513 140 ft 8 kts 338°
2026-05-05 08:05 24.88874 55.15493 139 ft 8 kts 353°
2026-05-05 08:05 24.88931 55.15498 139 ft 8 kts
2026-05-05 08:06 24.88970 55.15502 139 ft 8 kts
2026-05-05 08:06 24.89028 55.15505 138 ft 8 kts
2026-05-05 08:06 24.89082 55.15527 138 ft 8 kts 24°
2026-05-05 08:06 24.89134 55.15556 138 ft 9 kts 31°
2026-05-05 08:07 24.89196 55.15597 138 ft 13 kts 31°
2026-05-05 08:07 24.89237 55.15677 139 ft 8 kts 99°
2026-05-05 08:07 24.89200 55.15716 139 ft 7 kts 162°
2026-05-05 08:07 24.89152 55.15702 140 ft 8 kts 219°
2026-05-05 08:08 24.89097 55.15655 139 ft 12 kts 216°
2026-05-05 08:08 24.89010 55.15598 139 ft 17 kts 211°
2026-05-05 08:08 24.88899 55.15524 139 ft 20 kts 212°
2026-05-05 08:08 24.88643 55.15096 137 ft 0 kts 300°
2026-05-05 08:10 24.94226 55.07836 1389 ft 141 kts 121°
2026-05-05 08:11 24.93719 55.08757 1227 ft 140 kts 120°
2026-05-05 08:11 24.92284 55.11310 742 ft 146 kts 120°
2026-05-05 08:11 24.91802 55.12306 582 ft 148 kts 121°
2026-05-05 08:11 24.91242 55.13267 350 ft 149 kts 123°
2026-05-05 08:12 24.90701 55.14229 159 ft 145 kts 122°
2026-05-05 08:12 24.90192 55.15136 125 ft 129 kts 121°
2026-05-05 08:12 24.89815 55.15813 129 ft 77 kts 121°
2026-05-05 08:12 24.89671 55.16074 -60 ft 43 kts 121°